| time (UTC) | temp C | wind direction | speed KPH | gust KPH | rain 1hr cm | rain 24hr cm | rain mn cm | humidity % | barometer mb |
| 20260508011103 | 9 | 232 | 0.0 | 9.7 | 0.00 | 0.00 | 0.00 | 76 | 1012.5 |
| 20260508010117 | 9 | 141 | 0.0 | 6.4 | 0.00 | 0.00 | 0.00 | 75 | 1012.6 |
| 20260508005120 | 9 | 117 | 0.0 | 4.8 | 0.00 | 0.00 | 0.00 | 74 | 1012.6 |
| 20260508004100 | 9 | 186 | 0.0 | 4.8 | 0.00 | 0.00 | 0.00 | 74 | 1012.6 |
| 20260508003058 | 9 | 142 | 0.0 | 0.0 | 0.00 | 0.00 | 0.00 | 74 | 1012.6 |
| 20260508002059 | 9 | 165 | 0.0 | 1.6 | 0.00 | 0.00 | 0.00 | 74 | 1012.6 |
| 20260507234814 | 9 | 160 | 0.0 | 0.0 | 0.00 | 0.00 | 0.00 | 75 | 1012.5 |
| 20260507233804 | 9 | 219 | 0.0 | 4.8 | 0.00 | 0.00 | 0.00 | 75 | 1012.4 |
| 20260507232747 | 9 | 209 | 0.0 | 3.2 | 0.00 | 0.00 | 0.00 | 76 | 1012.3 |
| 20260507231801 | 9 | 240 | 0.0 | 0.0 | 0.00 | 0.00 | 0.00 | 76 | 1012.3 |
| 20260507230732 | 10 | 165 | 0.0 | 3.2 | 0.00 | 0.00 | 0.00 | 75 | 1012.3 |
| 20260507225744 | 10 | 81 | 0.0 | 3.2 | 0.00 | 0.00 | 0.00 | 75 | 1012.3 |
| 20260507223603 | 10 | 219 | 0.0 | 0.0 | 0.00 | 0.00 | 0.00 | 75 | 1012.5 |
| 20260507221513 | 10 | 226 | 0.0 | 8.0 | 0.00 | 0.00 | 0.00 | 77 | 1012.3 |
| 20260507220515 | 9 | 145 | 0.0 | 4.8 | 0.00 | 0.00 | 0.00 | 77 | 1012.3 |
| 20260507214404 | 10 | 197 | 0.0 | 0.0 | 0.00 | 0.00 | 0.00 | 77 | 1012.3 |
| 20260507212216 | 10 | 174 | 0.0 | 4.8 | 0.00 | 0.00 | 0.00 | 76 | 1012.3 |
| 20260507211218 | 10 | 184 | 0.0 | 0.0 | 0.00 | 0.00 | 0.00 | 75 | 1012.3 |
| 20260507210144 | 10 | 163 | 0.0 | 9.7 | 0.00 | 0.00 | 0.00 | 75 | 1012.3 |
| 20260507205201 | 10 | 207 | 0.0 | 9.7 | 0.00 | 0.00 | 0.00 | 75 | 1012.2 |
| 20260507204128 | 10 | 191 | 0.0 | 4.8 | 0.00 | 0.00 | 0.00 | 75 | 1012.2 |
| 20260507203139 | 10 | 194 | 1.6 | 9.7 | 0.00 | 0.00 | 0.00 | 74 | 1012.1 |
| 20260507202113 | 11 | 148 | 0.0 | 8.0 | 0.00 | 0.00 | 0.00 | 74 | 1011.9 |
| 20260507201043 | 11 | 221 | 3.2 | 17.7 | 0.00 | 0.00 | 0.00 | 73 | 1011.8 |
| 20260507200054 | 11 | 158 | 0.0 | 17.7 | 0.00 | 0.00 | 0.00 | 73 | 1011.7 |
| 20260507195103 | 11 | 170 | 1.6 | 9.7 | 0.00 | 0.00 | 0.00 | 72 | 1011.8 |
| 20260507194054 | 11 | 211 | 1.6 | 8.0 | 0.00 | 0.00 | 0.00 | 71 | 1011.7 |
| 20260507193025 | 11 | 134 | 3.2 | 11.3 | 0.00 | 0.00 | 0.00 | 70 | 1011.6 |
| 20260507191957 | 11 | 200 | 1.6 | 12.9 | 0.00 | 0.00 | 0.00 | 69 | 1011.6 |
| 20260507190941 | 11 | 165 | 3.2 | 12.9 | 0.00 | 0.00 | 0.00 | 69 | 1011.7 |
| 20260507185907 | 11 | 127 | 1.6 | 14.5 | 0.00 | 0.00 | 0.00 | 69 | 1011.7 |
| 20260507183802 | 11 | 145 | 1.6 | 14.5 | 0.00 | 0.00 | 0.00 | 68 | 1011.8 |
| 20260507182754 | 12 | 180 | 3.2 | 12.9 | 0.00 | 0.00 | 0.00 | 67 | 1011.7 |
| 20260507181741 | 12 | 141 | 3.2 | 14.5 | 0.00 | 0.00 | 0.00 | 66 | 1011.6 |
| 20260507180806 | 12 | 174 | 6.4 | 14.5 | 0.00 | 0.00 | 0.00 | 65 | 1011.5 |
| 20260507175808 | 12 | 190 | 3.2 | 12.9 | 0.00 | 0.00 | 0.00 | 65 | 1011.6 |
| 20260507174758 | 12 | 177 | 4.8 | 17.7 | 0.00 | 0.00 | 0.00 | 66 | 1011.6 |
| 20260507173753 | 12 | 73 | 4.8 | 17.7 | 0.00 | 0.00 | 0.00 | 65 | 1011.6 |
| 20260507172753 | 12 | 214 | 1.6 | 11.3 | 0.00 | 0.00 | 0.00 | 63 | 1011.6 |
| 20260507171810 | 12 | 158 | 3.2 | 14.5 | 0.00 | 0.00 | 0.00 | 62 | 1011.5 |
| 20260507170751 | 13 | 191 | 3.2 | 14.5 | 0.00 | 0.00 | 0.00 | 61 | 1011.5 |
| 20260507165741 | 13 | 215 | 4.8 | 11.3 | 0.00 | 0.00 | 0.00 | 61 | 1011.6 |
| 20260507164803 | 13 | 155 | 3.2 | 11.3 | 0.00 | 0.00 | 0.00 | 59 | 1011.6 |
| 20260507163734 | 13 | 255 | 4.8 | 16.1 | 0.00 | 0.00 | 0.00 | 58 | 1011.5 |
| 20260507162745 | 13 | 240 | 3.2 | 16.1 | 0.00 | 0.00 | 0.00 | 57 | 1011.5 |
| 20260507160529 | 13 | 235 | 1.6 | 11.3 | 0.00 | 0.00 | 0.00 | 59 | 1011.4 |
| 20260507155528 | 13 | 188 | 4.8 | 14.5 | 0.00 | 0.00 | 0.00 | 61 | 1011.5 |
| 20260507154518 | 13 | 224 | 3.2 | 20.9 | 0.00 | 0.00 | 0.00 | 60 | 1011.6 |
| 20260507153523 | 13 | 166 | 3.2 | 20.9 | 0.00 | 0.00 | 0.00 | 60 | 1011.6 |
| 20260507152541 | 13 | 166 | 1.6 | 11.3 | 0.00 | 0.00 | 0.00 | 60 | 1011.7 |
| 20260507151600 | 13 | 166 | 3.2 | 16.1 | 0.00 | 0.00 | 0.00 | 61 | 1011.7 |
| 20260507150621 | 12 | 172 | 3.2 | 19.3 | 0.00 | 0.00 | 0.00 | 62 | 1011.7 |
| 20260507145604 | 12 | 160 | 4.8 | 19.3 | 0.00 | 0.00 | 0.00 | 62 | 1011.8 |
| 20260507144612 | 12 | 207 | 4.8 | 16.1 | 0.00 | 0.00 | 0.00 | 63 | 1011.9 |
| 20260507143619 | 12 | 144 | 3.2 | 16.1 | 0.00 | 0.00 | 0.00 | 64 | 1011.8 |
| 20260507141453 | 12 | 193 | 3.2 | 14.5 | 0.00 | 0.00 | 0.00 | 64 | 1012.0 |
| 20260507140437 | 12 | 141 | 3.2 | 11.3 | 0.00 | 0.00 | 0.00 | 64 | 1012.0 |
| 20260507135454 | 12 | 217 | 1.6 | 8.0 | 0.00 | 0.00 | 0.00 | 67 | 1012.1 |
| 20260507134440 | 12 | 172 | 1.6 | 8.0 | 0.00 | 0.00 | 0.00 | 70 | 1012.2 |
| 20260507132342 | 12 | 228 | 3.2 | 16.1 | 0.00 | 0.00 | 0.00 | 70 | 1012.3 |
| 20260507130300 | 12 | 238 | 3.2 | 17.7 | 0.00 | 0.00 | 0.00 | 69 | 1012.2 |
| 20260507125318 | 12 | 208 | 3.2 | 17.7 | 0.00 | 0.00 | 0.00 | 69 | 1012.4 |
| 20260507124315 | 11 | 145 | 4.8 | 19.3 | 0.00 | 0.00 | 0.00 | 70 | 1012.4 |
| 20260507123313 | 12 | 215 | 6.4 | 19.3 | 0.00 | 0.00 | 0.00 | 70 | 1012.5 |
| 20260507122324 | 12 | 176 | 6.4 | 17.7 | 0.00 | 0.00 | 0.00 | 69 | 1012.5 |
| 20260507120151 | 12 | 163 | 3.2 | 16.1 | 0.00 | 0.00 | 0.00 | 70 | 1012.4 |
| 20260507115159 | 11 | 153 | 4.8 | 16.1 | 0.00 | 0.00 | 0.00 | 72 | 1012.4 |
| 20260507114156 | 11 | 108 | 4.8 | 16.1 | 0.00 | 0.00 | 0.00 | 73 | 1012.6 |
| 20260507112051 | 10 | 166 | 1.6 | 12.9 | 0.00 | 0.00 | 0.00 | 75 | 1012.6 |
| 20260507111105 | 10 | 160 | 3.2 | 11.3 | 0.00 | 0.00 | 0.00 | 76 | 1012.7 |
| 20260507104957 | 10 | 122 | 1.6 | 11.3 | 0.00 | 0.00 | 0.00 | 77 | 1012.7 |
| 20260507103936 | 9 | 231 | 1.6 | 16.1 | 0.00 | 0.00 | 0.00 | 77 | 1012.8 |
| 20260507100650 | 8 | 186 | 1.6 | 12.9 | 0.00 | 0.00 | 0.00 | 78 | 1012.8 |
| 20260507094543 | 8 | 191 | 1.6 | 12.9 | 0.00 | 0.00 | 0.00 | 79 | 1012.8 |
| 20260507093540 | 8 | 142 | 3.2 | 12.9 | 0.00 | 0.00 | 0.00 | 79 | 1012.9 |
| 20260507092527 | 8 | 155 | 1.6 | 11.3 | 0.00 | 0.00 | 0.00 | 77 | 1012.8 |
| 20260507091529 | 8 | 172 | 3.2 | 12.9 | 0.00 | 0.00 | 0.00 | 77 | 1012.8 |
| 20260507090520 | 8 | 204 | 3.2 | 11.3 | 0.00 | 0.00 | 0.00 | 76 | 1012.8 |
| 20260507085533 | 8 | 175 | 3.2 | 11.3 | 0.00 | 0.00 | 0.00 | 76 | 1012.8 |
| 20260507084514 | 9 | 170 | 0.0 | 11.3 | 0.00 | 0.00 | 0.00 | 76 | 1012.8 |
| 20260507083527 | 9 | 241 | 0.0 | 11.3 | 0.00 | 0.00 | 0.00 | 76 | 1012.7 |
| 20260507081354 | 9 | 146 | 0.0 | 9.7 | 0.00 | 0.00 | 0.00 | 75 | 1012.7 |
| 20260507080324 | 9 | 158 | 0.0 | 6.4 | 0.00 | 0.00 | 0.00 | 76 | 1012.6 |
| 20260507075328 | 8 | 51 | 0.0 | 4.8 | 0.00 | 0.00 | 0.00 | 76 | 1012.7 |
| 20260507074317 | 8 | 155 | 0.0 | 4.8 | 0.00 | 0.00 | 0.00 | 76 | 1012.7 |
| 20260507073319 | 8 | 222 | 0.0 | 0.0 | 0.00 | 0.00 | 0.00 | 76 | 1012.8 |
| 20260507072316 | 8 | 163 | 1.6 | 11.3 | 0.00 | 0.00 | 0.00 | 76 | 1012.7 |
| 20260507071249 | 8 | 215 | 1.6 | 11.3 | 0.00 | 0.00 | 0.00 | 76 | 1012.7 |
| 20260507070241 | 8 | 138 | 0.0 | 6.4 | 0.00 | 0.00 | 0.00 | 76 | 1012.7 |
| 20260507065234 | 8 | 215 | 0.0 | 1.6 | 0.00 | 0.00 | 0.00 | 76 | 1012.7 |
| 20260507064204 | 8 | 206 | 0.0 | 0.0 | 0.00 | 0.00 | 0.00 | 77 | 1012.6 |
| 20260507060839 | 6 | 178 | 0.0 | 3.2 | 0.00 | 0.00 | 0.00 | 79 | 1012.6 |
| 20260507055840 | 6 | 114 | 0.0 | 1.6 | 0.00 | 0.00 | 0.00 | 79 | 1012.7 |
| 20260507053725 | 6 | 355 | 0.0 | 0.0 | 0.00 | 0.00 | 0.00 | 79 | 1012.7 |
| 20260507052732 | 6 | 157 | 0.0 | 0.0 | 0.00 | 0.00 | 0.00 | 79 | 1012.8 |
| 20260507051751 | 6 | 237 | 0.0 | 0.0 | 0.00 | 0.00 | 0.00 | 78 | 1012.8 |
| 20260507050811 | 5 | 97 | 0.0 | 0.0 | 0.00 | 0.00 | 0.00 | 78 | 1012.9 |
| 20260507044656 | 5 | 160 | 0.0 | 0.0 | 0.00 | 0.00 | 0.00 | 76 | 1012.9 |
| 20260507043712 | 6 | 81 | 0.0 | 0.0 | 0.00 | 0.00 | 0.00 | 76 | 1012.9 |
| 20260507042726 | 6 | 197 | 0.0 | 0.0 | 0.00 | 0.00 | 0.00 | 75 | 1012.9 |
| 20260507041701 | 6 | 215 | 0.0 | 0.0 | 0.00 | 0.00 | 0.00 | 75 | 1013.0 |
| 20260507040628 | 6 | 100 | 0.0 | 1.6 | 0.00 | 0.00 | 0.00 | 74 | 1013.0 |
| 20260507035624 | 6 | 28 | 0.0 | 0.0 | 0.00 | 0.00 | 0.00 | 74 | 1013.1 |
| 20260507034552 | 6 | 214 | 0.0 | 0.0 | 0.00 | 0.00 | 0.00 | 73 | 1013.1 |
| 20260507033531 | 6 | 173 | 0.0 | 6.4 | 0.00 | 0.00 | 0.00 | 73 | 1013.1 |
| 20260507032531 | 6 | 9 | 0.0 | 0.0 | 0.00 | 0.00 | 0.00 | 73 | 1013.1 |
| 20260507031516 | 6 | 224 | 0.0 | 0.0 | 0.00 | 0.00 | 0.00 | 73 | 1013.3 |
| 20260507030448 | 6 | 233 | 0.0 | 0.0 | 0.00 | 0.00 | 0.00 | 72 | 1013.3 |
| 20260507024322 | 6 | 169 | 0.0 | 0.0 | 0.00 | 0.00 | 0.00 | 71 | 1013.4 |
| 20260507022145 | 6 | 283 | 0.0 | 8.0 | 0.00 | 0.00 | 0.00 | 70 | 1013.3 |
| 20260507021128 | 6 | 131 | 0.0 | 8.0 | 0.00 | 0.00 | 0.00 | 70 | 1013.3 |
| 20260507015039 | 7 | 66 | 0.0 | 6.4 | 0.00 | 0.00 | 0.00 | 69 | 1013.3 |
| 20260507014051 | 7 | 184 | 0.0 | 0.0 | 0.00 | 0.00 | 0.00 | 69 | 1013.4 |
| 20260507013034 | 7 | 214 | 0.0 | 0.0 | 0.00 | 0.00 | 0.00 | 69 | 1013.5 |
| 20260507012011 | 7 | 13 | 0.0 | 3.2 | 0.00 | 0.00 | 0.00 | 68 | 1013.4 |